UAL2121 KGPI-KDEN

Flight info

Callsign UAL2121
Flight time 1h 33m
Altitude 37000
Route RIDDG2 SKOTT TOFUU FLATI5
Aircraft B738/M-SDE2E3FGHIRWXY/LB1

Departure

Time 2026-05-08 23:01
Airport Glacier Park International Airport (KGPI)

Arrival

Time 2026-05-09 00:34
Airport Denver International Airport (KDEN)
Time Latitude Longitude Altitude Speed Heading
2026-05-08 22:40 48.30758 -114.25381 2978 ft 0 kts 124°
2026-05-08 22:54 48.30767 -114.25401 2978 ft 2 kts 124°
2026-05-08 22:55 48.30776 -114.25421 2978 ft 2 kts 124°
2026-05-08 22:55 48.30785 -114.25442 2978 ft 2 kts 126°
2026-05-08 22:55 48.30786 -114.25463 2978 ft 2 kts 35°
2026-05-08 22:55 48.30778 -114.25471 2978 ft 0 kts 32°
2026-05-08 22:57 48.30789 -114.25460 2978 ft 8 kts 33°
2026-05-08 22:58 48.30838 -114.25409 2978 ft 9 kts 35°
2026-05-08 22:58 48.30893 -114.25351 2979 ft 15 kts 34°
2026-05-08 22:58 48.31009 -114.25312 2979 ft 18 kts 359°
2026-05-08 22:58 48.31121 -114.25266 2980 ft 19 kts 34°
2026-05-08 22:59 48.31250 -114.25132 2980 ft 23 kts 34°
2026-05-08 22:59 48.31380 -114.24997 2981 ft 22 kts 34°
2026-05-08 22:59 48.31506 -114.24865 2981 ft 22 kts 35°
2026-05-08 22:59 48.31629 -114.24737 2983 ft 21 kts 35°
2026-05-08 23:00 48.31748 -114.24613 2984 ft 21 kts 35°
2026-05-08 23:00 48.31862 -114.24596 2992 ft 18 kts 310°
2026-05-08 23:00 48.31866 -114.24700 2986 ft 12 kts 224°
2026-05-08 23:00 48.31584 -114.24994 2980 ft 87 kts 214°
2026-05-08 23:01 48.30901 -114.25704 2977 ft 150 kts 214°
2026-05-08 23:01 48.29977 -114.26662 3446 ft 170 kts 212°
2026-05-08 23:01 48.29144 -114.28082 3973 ft 191 kts 242°
2026-05-08 23:01 48.28572 -114.29896 4919 ft 191 kts 241°
2026-05-08 23:02 48.27919 -114.31634 5642 ft 192 kts 243°
2026-05-08 23:02 48.27247 -114.33405 6232 ft 197 kts 243°
2026-05-08 23:02 48.26567 -114.35226 6752 ft 208 kts 244°
2026-05-08 23:02 48.25844 -114.37222 7043 ft 229 kts 244°
2026-05-08 23:03 48.25044 -114.39365 7460 ft 249 kts 236°
2026-05-08 23:03 48.23601 -114.40946 8084 ft 270 kts 202°
2026-05-08 23:03 48.21699 -114.41264 8921 ft 283 kts 178°
2026-05-08 23:03 48.19742 -114.40590 9762 ft 293 kts 165°
2026-05-08 23:04 48.17824 -114.39559 10496 ft 302 kts 163°
2026-05-08 23:04 48.15778 -114.38372 10761 ft 329 kts 161°
2026-05-08 23:04 48.13569 -114.37079 11089 ft 349 kts 161°
2026-05-08 23:04 48.11276 -114.35756 11796 ft 355 kts 161°
2026-05-08 23:05 48.08964 -114.34443 12615 ft 357 kts 162°
2026-05-08 23:05 48.06615 -114.33128 13313 ft 364 kts 162°
2026-05-08 23:05 48.04231 -114.31809 14083 ft 367 kts 162°
2026-05-08 23:05 48.01825 -114.30487 14767 ft 372 kts 162°
2026-05-08 23:06 47.99376 -114.29145 15424 ft 377 kts 162°
2026-05-08 23:06 47.96905 -114.27794 16097 ft 380 kts 163°
2026-05-08 23:06 47.94430 -114.26316 16752 ft 387 kts 156°
2026-05-08 23:06 47.92138 -114.24125 17359 ft 397 kts 144°
2026-05-08 23:07 47.89998 -114.21482 18027 ft 401 kts 143°
2026-05-08 23:07 47.87841 -114.18771 18525 ft 408 kts 143°
2026-05-08 23:07 47.85664 -114.16030 19103 ft 411 kts 143°
2026-05-08 23:07 47.83472 -114.13281 19731 ft 413 kts 143°
2026-05-08 23:08 47.81264 -114.10529 20326 ft 415 kts 143°
2026-05-08 23:08 47.79040 -114.07773 20902 ft 418 kts 143°
2026-05-08 23:08 47.76796 -114.05005 21450 ft 421 kts 143°
2026-05-08 23:08 47.74563 -114.02259 21990 ft 424 kts 143°
2026-05-08 23:09 47.72283 -113.99461 22547 ft 427 kts 143°
2026-05-08 23:09 47.69983 -113.96645 23105 ft 430 kts 143°
2026-05-08 23:09 47.67666 -113.93811 23619 ft 433 kts 143°
2026-05-08 23:09 47.65332 -113.90959 24042 ft 436 kts 143°
2026-05-08 23:10 47.62982 -113.88091 24452 ft 439 kts 143°
2026-05-08 23:10 47.60613 -113.85203 24878 ft 442 kts 143°
2026-05-08 23:10 47.58233 -113.82306 25280 ft 444 kts 143°
2026-05-08 23:10 47.55832 -113.79386 25654 ft 448 kts 143°
2026-05-08 23:11 47.53416 -113.76452 26039 ft 450 kts 143°
2026-05-08 23:11 47.50985 -113.73503 26433 ft 453 kts 143°
2026-05-08 23:11 47.48537 -113.70536 26801 ft 455 kts 144°
2026-05-08 23:11 47.46074 -113.67556 27164 ft 458 kts 144°
2026-05-08 23:12 47.43597 -113.64563 27513 ft 461 kts 144°
2026-05-08 23:12 47.41106 -113.61555 27880 ft 464 kts 144°
2026-05-08 23:12 47.38632 -113.58573 28230 ft 466 kts 144°
2026-05-08 23:12 47.36105 -113.55531 28567 ft 469 kts 144°
2026-05-08 23:13 47.33572 -113.52484 28903 ft 472 kts 144°
2026-05-08 23:13 47.31021 -113.49420 29246 ft 474 kts 144°
2026-05-08 23:13 47.28455 -113.46342 29553 ft 477 kts 144°
2026-05-08 23:13 47.25872 -113.43249 29869 ft 479 kts 144°
2026-05-08 23:14 47.23280 -113.40148 30140 ft 482 kts 144°
2026-05-08 23:14 47.20672 -113.37032 30407 ft 484 kts 144°
2026-05-08 23:14 47.18054 -113.33908 30686 ft 486 kts 144°
2026-05-08 23:14 47.15431 -113.30781 31012 ft 485 kts 144°
2026-05-08 23:15 47.12809 -113.27658 31397 ft 484 kts 145°
2026-05-08 23:15 47.10192 -113.24546 31775 ft 483 kts 145°
2026-05-08 23:15 47.07582 -113.21447 32092 ft 483 kts 145°
2026-05-08 23:15 47.04968 -113.18349 32399 ft 483 kts 145°
2026-05-08 23:16 47.02352 -113.15251 32733 ft 483 kts 145°
2026-05-08 23:16 46.99743 -113.12166 33071 ft 482 kts 146°
2026-05-08 23:16 46.97171 -113.09129 33380 ft 482 kts 146°
2026-05-08 23:16 46.94562 -113.06052 33684 ft 481 kts 146°
2026-05-08 23:17 46.91948 -113.02973 33997 ft 481 kts 146°
2026-05-08 23:17 46.89343 -112.99909 34253 ft 481 kts 146°
2026-05-08 23:17 46.86730 -112.96840 34529 ft 480 kts 146°
2026-05-08 23:17 46.84122 -112.93779 34796 ft 480 kts 146°
2026-05-08 23:18 46.81526 -112.90736 35069 ft 479 kts 146°
2026-05-08 23:18 46.78923 -112.87690 35326 ft 478 kts 146°
2026-05-08 23:18 46.76325 -112.84654 35510 ft 479 kts 147°
2026-05-08 23:18 46.73704 -112.81605 35740 ft 485 kts 143°
2026-05-08 23:19 46.68420 -112.75451 35868 ft 495 kts 143°
2026-05-08 23:19 46.62990 -112.69137 35977 ft 505 kts 143°
2026-05-08 23:20 46.57455 -112.62719 36154 ft 512 kts 143°
2026-05-08 23:20 46.54661 -112.59488 36311 ft 513 kts 143°
2026-05-08 23:20 46.51865 -112.56257 36547 ft 513 kts 143°
2026-05-08 23:21 46.49076 -112.53039 36835 ft 512 kts 143°
2026-05-08 23:21 46.47231 -112.50912 36987 ft 512 kts 143°
2026-05-08 23:21 46.41606 -112.44443 36959 ft 516 kts 144°
2026-05-08 23:22 46.35998 -112.38008 36945 ft 512 kts 144°
2026-05-08 23:22 46.30444 -112.31653 36942 ft 507 kts 144°
2026-05-08 23:23 46.24925 -112.25356 36943 ft 503 kts 144°
2026-05-08 23:23 46.19416 -112.19091 36944 ft 507 kts 144°
2026-05-08 23:24 46.13838 -112.12764 36938 ft 511 kts 144°
2026-05-08 23:24 46.08239 -112.06427 36944 ft 512 kts 144°
2026-05-08 23:25 46.02623 -112.00087 36909 ft 513 kts 144°
2026-05-08 23:25 45.97045 -111.93805 36905 ft 512 kts 144°
2026-05-08 23:26 45.91440 -111.87510 36889 ft 509 kts 144°
2026-05-08 23:26 45.85904 -111.81307 36885 ft 500 kts 144°
2026-05-08 23:27 45.80426 -111.75188 36894 ft 498 kts 144°
2026-05-08 23:27 45.74959 -111.69098 36887 ft 497 kts 144°
2026-05-08 23:28 45.69532 -111.63068 36893 ft 496 kts 144°
2026-05-08 23:28 45.64086 -111.57031 36908 ft 495 kts 144°
2026-05-08 23:29 45.58649 -111.51018 36914 ft 494 kts 144°
2026-05-08 23:29 45.53217 -111.45027 36935 ft 493 kts 144°
2026-05-08 23:30 45.47787 -111.39053 36960 ft 493 kts 144°
2026-05-08 23:30 45.42363 -111.33099 36978 ft 492 kts 144°
2026-05-08 23:31 45.36930 -111.27151 37003 ft 492 kts 144°
2026-05-08 23:31 45.31513 -111.21232 36954 ft 489 kts 144°
2026-05-08 23:32 45.26153 -111.15392 36969 ft 489 kts 144°
2026-05-08 23:32 45.20760 -111.09534 36979 ft 487 kts 144°
2026-05-08 23:33 45.15369 -111.03690 36969 ft 487 kts 145°
2026-05-08 23:33 45.09989 -110.97874 36989 ft 486 kts 145°
2026-05-08 23:34 45.04606 -110.92066 36985 ft 486 kts 145°
2026-05-08 23:34 45.01919 -110.89171 36772 ft 484 kts 147°
2026-05-08 23:34 44.99255 -110.86298 36934 ft 480 kts 147°
2026-05-08 23:35 44.93948 -110.80600 36999 ft 478 kts 147°
2026-05-08 23:35 44.88686 -110.74969 36997 ft 477 kts 147°
2026-05-08 23:36 44.83365 -110.69291 37015 ft 484 kts 147°
2026-05-08 23:36 44.77948 -110.63523 37004 ft 491 kts 147°
2026-05-08 23:37 44.72475 -110.57702 36999 ft 494 kts 147°
2026-05-08 23:37 44.66976 -110.51865 37008 ft 495 kts 147°
2026-05-08 23:38 44.61474 -110.46040 37015 ft 495 kts 147°
2026-05-08 23:38 44.56005 -110.40266 37017 ft 495 kts 147°
2026-05-08 23:39 44.50501 -110.34469 37019 ft 493 kts 147°
2026-05-08 23:39 44.45017 -110.28707 37025 ft 492 kts 147°
2026-05-08 23:40 44.39536 -110.22964 37027 ft 492 kts 147°
2026-05-08 23:40 44.34080 -110.17260 37015 ft 492 kts 147°
2026-05-08 23:41 44.28596 -110.11541 37019 ft 492 kts 147°
2026-05-08 23:41 44.23102 -110.05823 37011 ft 492 kts 147°
2026-05-08 23:42 44.17608 -110.00121 36987 ft 493 kts 147°
2026-05-08 23:42 44.12099 -109.94414 37019 ft 491 kts 147°
2026-05-08 23:43 44.06604 -109.88738 37011 ft 493 kts 147°
2026-05-08 23:43 44.01120 -109.83087 36993 ft 494 kts 147°
2026-05-08 23:44 43.95592 -109.77402 36980 ft 494 kts 147°
2026-05-08 23:44 43.90054 -109.71722 37011 ft 494 kts 147°
2026-05-08 23:45 43.84538 -109.66078 37003 ft 496 kts 147°
2026-05-08 23:45 43.78972 -109.60392 37002 ft 496 kts 147°
2026-05-08 23:46 43.73410 -109.54726 37011 ft 496 kts 147°
2026-05-08 23:46 43.67836 -109.49063 37017 ft 497 kts 147°
2026-05-08 23:47 43.62287 -109.43437 37001 ft 496 kts 147°
2026-05-08 23:47 43.56734 -109.37819 36990 ft 494 kts 147°
2026-05-08 23:48 43.51194 -109.32229 36956 ft 493 kts 147°
2026-05-08 23:48 43.45665 -109.26663 36934 ft 492 kts 147°
2026-05-08 23:49 43.40135 -109.21109 36888 ft 492 kts 146°
2026-05-08 23:49 43.34594 -109.15557 36883 ft 493 kts 146°
2026-05-08 23:50 43.29045 -109.10009 36869 ft 494 kts 146°
2026-05-08 23:50 43.23481 -109.04459 36849 ft 495 kts 146°
2026-05-08 23:51 43.17939 -108.98944 36853 ft 496 kts 146°
2026-05-08 23:51 43.12337 -108.93382 36848 ft 497 kts 146°
2026-05-08 23:52 43.06738 -108.87835 36874 ft 497 kts 146°
2026-05-08 23:52 43.01125 -108.82288 36895 ft 497 kts 146°
2026-05-08 23:53 42.95517 -108.76758 36929 ft 497 kts 146°
2026-05-08 23:53 42.89937 -108.71269 36949 ft 497 kts 146°
2026-05-08 23:54 42.84314 -108.65750 36959 ft 496 kts 146°
2026-05-08 23:55 42.75901 -108.57515 36940 ft 496 kts 146°
2026-05-08 23:55 42.70290 -108.52040 36905 ft 496 kts 146°
2026-05-08 23:56 42.64720 -108.46616 36878 ft 496 kts 146°
2026-05-08 23:56 42.59098 -108.41154 36841 ft 496 kts 146°
2026-05-08 23:57 42.53478 -108.35705 36844 ft 495 kts 146°
2026-05-08 23:57 42.47895 -108.30307 36830 ft 496 kts 146°
2026-05-08 23:58 42.42273 -108.24881 36844 ft 496 kts 146°
2026-05-08 23:58 42.36643 -108.19461 36847 ft 497 kts 146°
2026-05-08 23:59 42.31004 -108.14043 36848 ft 497 kts 146°
2026-05-08 23:59 42.25359 -108.08632 36849 ft 498 kts 146°
2026-05-09 00:00 42.19708 -108.03227 36857 ft 498 kts 146°
2026-05-09 00:00 42.14047 -107.97826 36859 ft 499 kts 146°
2026-05-09 00:01 42.08411 -107.92459 36858 ft 499 kts 146°
2026-05-09 00:01 42.02737 -107.87068 36869 ft 499 kts 146°
2026-05-09 00:02 41.97055 -107.81682 36871 ft 500 kts 146°
2026-05-09 00:02 41.91371 -107.76305 36876 ft 500 kts 146°
2026-05-09 00:03 41.85682 -107.70933 36877 ft 500 kts 146°
2026-05-09 00:03 41.80186 -107.65231 36886 ft 501 kts 134°
2026-05-09 00:04 41.75526 -107.58303 36934 ft 500 kts 130°
2026-05-09 00:04 41.70974 -107.51340 36951 ft 500 kts 131°
2026-05-09 00:05 41.66315 -107.44346 36961 ft 500 kts 131°
2026-05-09 00:05 41.61681 -107.37475 36974 ft 501 kts 131°
2026-05-09 00:06 41.56996 -107.30554 36963 ft 501 kts 131°
2026-05-09 00:06 41.52325 -107.23658 36936 ft 500 kts 131°
2026-05-09 00:07 41.47653 -107.16774 36969 ft 500 kts 131°
2026-05-09 00:07 41.43016 -107.09959 37002 ft 499 kts 131°
2026-05-09 00:08 41.38338 -107.03098 37020 ft 498 kts 131°
2026-05-09 00:08 41.33674 -106.96267 37031 ft 498 kts 131°
2026-05-09 00:09 41.29017 -106.89461 37027 ft 497 kts 131°
2026-05-09 00:09 41.25146 -106.83815 37016 ft 497 kts 131°
2026-05-09 00:10 41.19719 -106.75917 36989 ft 497 kts 131°
2026-05-09 00:10 41.15842 -106.70287 36969 ft 497 kts 131°
2026-05-09 00:11 41.11177 -106.63528 36958 ft 497 kts 131°
2026-05-09 00:11 41.06491 -106.56755 36941 ft 498 kts 131°
2026-05-09 00:11 41.04135 -106.53353 36487 ft 504 kts 131°
2026-05-09 00:12 41.01765 -106.49937 35958 ft 502 kts 131°
2026-05-09 00:12 40.99400 -106.46532 35334 ft 502 kts 131°
2026-05-09 00:12 40.97032 -106.43125 34695 ft 503 kts 131°
2026-05-09 00:12 40.94657 -106.39713 34036 ft 504 kts 132°
2026-05-09 00:13 40.92277 -106.36297 33237 ft 506 kts 132°
2026-05-09 00:13 40.89919 -106.32915 32511 ft 507 kts 132°
2026-05-09 00:13 40.87526 -106.29488 31929 ft 504 kts 132°
2026-05-09 00:13 40.85172 -106.26079 31434 ft 500 kts 129°
2026-05-09 00:14 40.83282 -106.22270 30900 ft 493 kts 113°
2026-05-09 00:14 40.81864 -106.18184 30460 ft 488 kts 111°
2026-05-09 00:14 40.80492 -106.14081 29926 ft 485 kts 111°
2026-05-09 00:14 40.79120 -106.10019 29359 ft 482 kts 112°
2026-05-09 00:15 40.77712 -106.06025 28879 ft 477 kts 116°
2026-05-09 00:15 40.76031 -106.02291 28634 ft 469 kts 122°
2026-05-09 00:15 40.74258 -105.98732 28343 ft 460 kts 123°
2026-05-09 00:15 40.72465 -105.95222 28109 ft 464 kts 123°
2026-05-09 00:16 40.70646 -105.91666 27855 ft 471 kts 123°
2026-05-09 00:16 40.68821 -105.88077 27607 ft 471 kts 123°
2026-05-09 00:16 40.67018 -105.84500 27332 ft 466 kts 123°
2026-05-09 00:16 40.65260 -105.80994 27053 ft 462 kts 123°
2026-05-09 00:17 40.63501 -105.77469 26841 ft 459 kts 123°
2026-05-09 00:17 40.61750 -105.73960 26581 ft 457 kts 123°
2026-05-09 00:17 40.60004 -105.70466 26341 ft 457 kts 123°
2026-05-09 00:17 40.58259 -105.66977 26084 ft 454 kts 123°
2026-05-09 00:18 40.56525 -105.63514 25848 ft 453 kts 123°
2026-05-09 00:18 40.54794 -105.60063 25603 ft 451 kts 123°
2026-05-09 00:18 40.53070 -105.56631 25297 ft 447 kts 123°
2026-05-09 00:18 40.51356 -105.53222 24856 ft 444 kts 124°
2026-05-09 00:19 40.49660 -105.49853 24386 ft 441 kts 124°
2026-05-09 00:19 40.47988 -105.46532 23908 ft 439 kts 124°
2026-05-09 00:19 40.46297 -105.43180 23406 ft 437 kts 124°
2026-05-09 00:19 40.44617 -105.39854 22865 ft 435 kts 124°
2026-05-09 00:20 40.42952 -105.36561 22370 ft 431 kts 124°
2026-05-09 00:20 40.41298 -105.33288 21892 ft 427 kts 124°
2026-05-09 00:20 40.39678 -105.30091 21413 ft 424 kts 124°
2026-05-09 00:20 40.38052 -105.26884 20952 ft 420 kts 124°
2026-05-09 00:21 40.36440 -105.23707 20501 ft 417 kts 124°
2026-05-09 00:21 40.34837 -105.20554 20047 ft 414 kts 124°
2026-05-09 00:21 40.33235 -105.17404 19606 ft 412 kts 124°
2026-05-09 00:21 40.31644 -105.14278 19135 ft 410 kts 124°
2026-05-09 00:22 40.30063 -105.11175 18684 ft 408 kts 124°
2026-05-09 00:22 40.28492 -105.08095 18200 ft 406 kts 124°
2026-05-09 00:22 40.26927 -105.05027 17696 ft 404 kts 124°
2026-05-09 00:22 40.25368 -105.01976 17207 ft 401 kts 124°
2026-05-09 00:23 40.23818 -104.98955 16735 ft 398 kts 126°
2026-05-09 00:23 40.22072 -104.96182 16284 ft 393 kts 136°
2026-05-09 00:23 40.20057 -104.93905 15950 ft 384 kts 146°
2026-05-09 00:23 40.17823 -104.92039 15519 ft 378 kts 157°
2026-05-09 00:24 40.15418 -104.90692 15093 ft 373 kts 161°
2026-05-09 00:24 40.13157 -104.89481 14686 ft 372 kts 161°
2026-05-09 00:24 40.10763 -104.88174 14249 ft 371 kts 160°
2026-05-09 00:24 40.08424 -104.86871 13833 ft 369 kts 160°
2026-05-09 00:25 40.06068 -104.85546 13337 ft 368 kts 159°
2026-05-09 00:25 40.03727 -104.84223 12935 ft 362 kts 159°
2026-05-09 00:25 40.01493 -104.82942 12836 ft 341 kts 159°
2026-05-09 00:25 39.99373 -104.81726 12679 ft 327 kts 159°
2026-05-09 00:26 39.97314 -104.80636 12560 ft 311 kts 168°
2026-05-09 00:26 39.95202 -104.80375 12304 ft 301 kts 185°
2026-05-09 00:26 39.93112 -104.80446 12006 ft 300 kts 185°
2026-05-09 00:26 39.91027 -104.80530 11728 ft 298 kts 185°
2026-05-09 00:27 39.88980 -104.80605 11607 ft 289 kts 185°
2026-05-09 00:27 39.87011 -104.80668 11478 ft 279 kts 185°
2026-05-09 00:27 39.85119 -104.80723 11357 ft 272 kts 184°
2026-05-09 00:27 39.83249 -104.80775 11239 ft 265 kts 184°
2026-05-09 00:28 39.81426 -104.80823 11120 ft 258 kts 184°
2026-05-09 00:28 39.79658 -104.80870 11020 ft 250 kts 184°
2026-05-09 00:28 39.77917 -104.80917 10811 ft 253 kts 184°
2026-05-09 00:28 39.76151 -104.80965 10548 ft 255 kts 184°
2026-05-09 00:29 39.74376 -104.81013 10269 ft 256 kts 183°
2026-05-09 00:29 39.72595 -104.80930 9980 ft 258 kts 170°
2026-05-09 00:29 39.70942 -104.80009 9661 ft 262 kts 143°
2026-05-09 00:29 39.69733 -104.78256 9361 ft 263 kts 119°
2026-05-09 00:30 39.69141 -104.76023 9064 ft 262 kts 96°
2026-05-09 00:30 39.69180 -104.73717 8759 ft 256 kts 76°
2026-05-09 00:30 39.69849 -104.71637 8495 ft 245 kts 54°
2026-05-09 00:30 39.70992 -104.70097 8226 ft 232 kts 34°
2026-05-09 00:31 39.72409 -104.69250 7975 ft 219 kts 13°
2026-05-09 00:31 39.73871 -104.68948 7711 ft 209 kts
2026-05-09 00:31 39.75311 -104.68850 7491 ft 205 kts
2026-05-09 00:31 39.76728 -104.68828 7291 ft 203 kts
2026-05-09 00:32 39.77781 -104.68818 7096 ft 206 kts
2026-05-09 00:32 39.79223 -104.68803 6821 ft 204 kts
2026-05-09 00:32 39.80582 -104.68788 6569 ft 192 kts
2026-05-09 00:32 39.81883 -104.68771 6291 ft 180 kts
2026-05-09 00:33 39.83073 -104.68758 6048 ft 166 kts
2026-05-09 00:33 39.84201 -104.68746 5857 ft 163 kts
2026-05-09 00:33 39.85346 -104.68746 5611 ft 162 kts
2026-05-09 00:33 39.86463 -104.68722 5397 ft 158 kts
2026-05-09 00:34 39.87477 -104.68706 5361 ft 119 kts 360°
2026-05-09 00:34 39.88090 -104.68699 5361 ft 74 kts
2026-05-09 00:34 39.88426 -104.68666 5359 ft 41 kts 14°
2026-05-09 00:34 39.88593 -104.68550 5359 ft 12 kts 84°
2026-05-09 00:35 39.88539 -104.68483 5359 ft 12 kts 174°
2026-05-09 00:35 39.88457 -104.68481 5359 ft 12 kts 181°
2026-05-09 00:35 39.88377 -104.68482 5360 ft 11 kts 180°
2026-05-09 00:35 39.88254 -104.68483 5360 ft 22 kts 180°
2026-05-09 00:36 39.88102 -104.68485 5360 ft 21 kts 181°